Hourly Weather Roundup
Issued by NWS Central Illinois

Home | Current Version | Previous Version | Text Only | Print | Product List | Glossary On
Versions: 1 2 3 4 5 6 7 8 9 10 11 12 13 14 15 16 17 18 19 20 21 22 23 24 25 26 27 28 29 30 31 32 33 34 35 36 37 38 39 40 41 42 43 44 45 46 47 48 49 50
000
NZUS43 KILX 251210
HWRILX

AREA WEATHER ROUNDUP
NATIONAL WEATHER SERVICE, LINCOLN IL
600 AM CST THU DEC 25 2014


CITY           SKY/WX    TMP DP  RH WIND       PRES   REMARKS
BLOOMINGTON    CLOUDY    35  31  86 W12G18    29.91R WCI  27
6HR MIN TEMP:  34; 6HR MAX TEMP:  36;

CHAMPAIGN      CLOUDY    35  31  85 SW10      29.93R WCI  27
6HR MIN TEMP:  35; 6HR MAX TEMP:  36;

DECATUR        CLOUDY    36  31  82 SW9       29.93R WCI  29
6HR MIN TEMP:  36; 6HR MAX TEMP:  37; 6HR PCP: TRACE;

FLORA          CLEAR     37  34  89 SW8       30.00R WCI  31
6HR MIN TEMP:  37; 6HR MAX TEMP:  38;

GALESBURG      CLOUDY    33  30  90 SW9       29.87R WCI  25
JACKSONVILLE   CLOUDY    37  31  81 SW8       29.93R WCI  30
6HR MIN TEMP:  37; 6HR MAX TEMP:  38;

LACON          CLOUDY    34  28  78 W7        29.88R WCI  28
6HR MIN TEMP:  34; 6HR MAX TEMP:  35;

LAWRENCEVILLE  CLOUDY    38  33  82 SW7       30.01R WCI  33
6HR MIN TEMP:  38; 6HR MAX TEMP:  39; 6HR PCP: TRACE;

LITCHFIELD     CLOUDY    35  29  79 SW9       29.96R WCI  28
$$


CITY           SKY/WX    TMP DP  RH WIND       PRES   REMARKS
LINCOLN        CLOUDY    37  31  81 SW3       29.92R
6HR MIN TEMP:  36; 6HR MAX TEMP:  38;

MACOMB         CLOUDY    34  30  86 SW14      29.90R WCI  24
MATTOON        CLOUDY    36  30  79 SW7       29.95R WCI  30
6HR MIN TEMP:  35; 6HR MAX TEMP:  36; 6HR PCP: TRACE;

MT CARMEL AP   MOCLDY    37  34  87 SW6       30.01R WCI  33
OLNEY-NOBLE AP CLOUDY    36  32  87 CALM      30.00R
PARIS          CLOUDY    36  32  86 W8        29.97R WCI  29
6HR MIN TEMP:  36; 6HR MAX TEMP:  37;

PEORIA         CLOUDY    37  28  70 SW14      29.90R WCI  28
6HR MIN TEMP:  36; 6HR MAX TEMP:  37;

PONTIAC        CLOUDY    35  32  88 SW7       29.90R WCI  29
RANTOUL        CLOUDY    37  32  84 W9        29.92R WCI  30
6HR MIN TEMP:  36; 6HR MAX TEMP:  37;

ROBINSON       CLOUDY    37  33  88 SW8       30.01R WCI  30
6HR MIN TEMP:  36; 6HR MAX TEMP:  37;

SPRINGFIELD    CLOUDY    37  30  75 SW10      29.93R WCI  30
6HR MIN TEMP:  36; 6HR MAX TEMP:  37;

TAYLORVILLE    CLOUDY    34  32  93 SW12      29.95R WCI  25
$$

...REGIONAL REPORTS...


CITY           SKY/WX    TMP DP  RH WIND       PRES   REMARKS
CHICAGO O`HARE CLOUDY    34  27  75 W13G22    29.83R WCI  25
KANKAKEE       CLOUDY    34  31  88 SW10      29.89R WCI  26
MOLINE         CLOUDY    34  27  75 SW9       29.84R WCI  27
MOUNT VERNON   CLOUDY    37  30  75 SW12      30.01R WCI  30
PITTSFIELD     PTCLDY    35  31  85 S6        29.93R WCI  30
QUINCY         PTCLDY    33  28  81 S8        29.89R WCI  26
ROCKFORD       CLOUDY    33  26  75 W12G20    29.84R WCI  24
$$


CITY           SKY/WX    TMP DP  RH WIND       PRES   REMARKS
BURLINGTON     CLOUDY    34  30  85 S10       29.86R WCI  26
CEDAR RAPIDS   CLOUDY    31  29  92 S12       29.78R WCI  22
DES MOINES     MOCLDY    32  28  85 S10       29.73S WCI  24
KIRKSVILLE     CLEAR     31  29  92 S12       29.84R WCI  22
OTTUMWA        CLEAR     31  28  89 S14       29.79S WCI  21
ST LOUIS       PTCLDY    36  29  75 S5        29.97R WCI  32
$$


CITY           SKY/WX    TMP DP  RH WIND       PRES   REMARKS
TERRE HAUTE    CLOUDY    36  29  75 W14       29.98R WCI  27
EVANSVILLE     CLOUDY    40  32  73 SW9       30.04R WCI  34
INDIANAPOLIS   CLOUDY    34  31  88 SW13      29.94R WCI  25
LAFAYETTE      CLOUDY    35  31  85 W9        29.92R WCI  28
MADISON        CLOUDY    33  27  78 VRB7      29.76R WCI  27
MILWAUKEE      CLOUDY    36  27  69 W13G20    29.78R WCI  27
$$




USA.gov is the U.S. government's official web portal to all federal, state and local government web resources and services.